Year,Month,Day,Hour,Minute,Value (Times are PST for temperature in C)
2010,07,06,00,00,11.70
2010,07,06,00,01,11.60
2010,07,06,00,02,11.60
2010,07,06,00,03,11.60
2010,07,06,00,04,11.40
2010,07,06,00,05,11.40
2010,07,06,00,06,11.40
2010,07,06,00,07,11.40
2010,07,06,00,08,11.40
2010,07,06,00,09,11.40
2010,07,06,00,10,11.40
2010,07,06,00,11,11.40
2010,07,06,00,12,11.40
2010,07,06,00,13,11.40
2010,07,06,00,14,11.40
2010,07,06,00,15,11.40
2010,07,06,00,16,11.40
2010,07,06,00,17,11.50
2010,07,06,00,18,11.60
2010,07,06,00,19,11.60
2010,07,06,00,20,11.60
2010,07,06,00,21,11.60
2010,07,06,00,22,11.70
2010,07,06,00,23,11.70
2010,07,06,00,24,11.70
2010,07,06,00,25,11.70
2010,07,06,00,26,11.70
2010,07,06,00,27,11.70
2010,07,06,00,28,11.70
2010,07,06,00,29,11.70
2010,07,06,00,30,11.70
2010,07,06,00,31,11.70
2010,07,06,00,32,11.60
2010,07,06,00,33,11.60
2010,07,06,00,34,11.60
2010,07,06,00,35,11.60
2010,07,06,00,36,11.60
2010,07,06,00,37,11.60
2010,07,06,00,38,11.60
2010,07,06,00,39,11.60
2010,07,06,00,40,11.60
2010,07,06,00,41,11.40
2010,07,06,00,42,11.40
2010,07,06,00,43,11.40
2010,07,06,00,44,11.40
2010,07,06,00,45,11.40
2010,07,06,00,46,11.40
2010,07,06,00,47,11.40
2010,07,06,00,48,11.40
2010,07,06,00,49,11.40
2010,07,06,00,50,11.30
2010,07,06,00,51,11.20
2010,07,06,00,52,11.20
2010,07,06,00,53,11.10
2010,07,06,00,54,11.10
2010,07,06,00,55,10.90
2010,07,06,00,56,10.90
2010,07,06,00,57,10.90
2010,07,06,00,58,10.80
2010,07,06,00,59,10.80
2010,07,06,01,00,10.70
2010,07,06,01,01,10.70
2010,07,06,01,02,10.60
2010,07,06,01,03,10.60
2010,07,06,01,04,10.60
2010,07,06,01,05,10.60
2010,07,06,01,06,10.60
2010,07,06,01,07,10.60
2010,07,06,01,08,10.60
2010,07,06,01,09,10.60
2010,07,06,01,10,10.60
2010,07,06,01,11,10.60
2010,07,06,01,12,10.60
2010,07,06,01,13,10.60
2010,07,06,01,14,10.60
2010,07,06,01,15,10.50
2010,07,06,01,16,10.40
2010,07,06,01,17,10.40
2010,07,06,01,18,10.40
2010,07,06,01,19,10.40
2010,07,06,01,20,10.40
2010,07,06,01,21,10.30
2010,07,06,01,22,10.30
2010,07,06,01,23,10.30
2010,07,06,01,24,10.40
2010,07,06,01,25,10.30
2010,07,06,01,26,10.30
2010,07,06,01,27,10.30
2010,07,06,01,28,10.30
2010,07,06,01,29,10.30
2010,07,06,01,30,10.30
2010,07,06,01,31,10.20
2010,07,06,01,32,10.20
2010,07,06,01,33,10.10
2010,07,06,01,34,10.10
2010,07,06,01,35,10.10
2010,07,06,01,36,10.10
2010,07,06,01,37,10.10
2010,07,06,01,38,10.10
2010,07,06,01,39,10.10
2010,07,06,01,40,10.10
2010,07,06,01,41,10.10
2010,07,06,01,42,10.10
2010,07,06,01,43,10.10
2010,07,06,01,44,10.10
2010,07,06,01,45,10.10
2010,07,06,01,46,10.10
2010,07,06,01,47,10.10
2010,07,06,01,48,10.10
2010,07,06,01,49,10.20
2010,07,06,01,50,10.20
2010,07,06,01,51,10.20
2010,07,06,01,52,10.20
2010,07,06,01,53,10.30
2010,07,06,01,54,10.30
2010,07,06,01,55,10.30
2010,07,06,01,56,10.30
2010,07,06,01,57,10.30
2010,07,06,01,58,10.40
2010,07,06,01,59,10.40
2010,07,06,02,00,10.40
2010,07,06,02,01,10.40
2010,07,06,02,02,10.40
2010,07,06,02,03,10.40
2010,07,06,02,04,10.40
2010,07,06,02,05,10.40
2010,07,06,02,06,10.60
2010,07,06,02,07,10.60
2010,07,06,02,08,10.60
2010,07,06,02,09,10.60
2010,07,06,02,10,10.50
2010,07,06,02,11,10.40
2010,07,06,02,12,10.40
2010,07,06,02,13,10.40
2010,07,06,02,14,10.40
2010,07,06,02,15,10.30
2010,07,06,02,16,10.30
2010,07,06,02,17,10.20
2010,07,06,02,18,10.10
2010,07,06,02,19,10.10
2010,07,06,02,20,10.00
2010,07,06,02,21,9.90
2010,07,06,02,22,9.90
2010,07,06,02,23,9.80
2010,07,06,02,24,9.80
2010,07,06,02,25,9.70
2010,07,06,02,26,9.70
2010,07,06,02,27,9.70
2010,07,06,02,28,9.70
2010,07,06,02,29,9.70
2010,07,06,02,30,9.70
2010,07,06,02,31,9.60
2010,07,06,02,32,9.60
2010,07,06,02,33,9.60
2010,07,06,02,34,9.70
2010,07,06,02,35,9.70
2010,07,06,02,36,9.70
2010,07,06,02,37,9.70
2010,07,06,02,38,9.70
2010,07,06,02,39,9.70
2010,07,06,02,40,9.70
2010,07,06,02,41,9.70
2010,07,06,02,42,9.70
2010,07,06,02,43,9.70
2010,07,06,02,44,9.70
2010,07,06,02,45,9.80
2010,07,06,02,46,9.80
2010,07,06,02,47,9.80
2010,07,06,02,48,9.80
2010,07,06,02,49,9.90
2010,07,06,02,50,9.90
2010,07,06,02,51,9.90
2010,07,06,02,52,9.90
2010,07,06,02,53,9.90
2010,07,06,02,54,9.90
2010,07,06,02,55,9.90
2010,07,06,02,56,9.90
2010,07,06,02,57,9.90
2010,07,06,02,58,9.90
2010,07,06,02,59,9.90
2010,07,06,03,00,9.90
2010,07,06,03,01,9.90
2010,07,06,03,02,9.90
2010,07,06,03,03,9.80
2010,07,06,03,04,9.70
2010,07,06,03,05,9.70
2010,07,06,03,06,9.70
2010,07,06,03,07,9.60
2010,07,06,03,08,9.60
2010,07,06,03,09,9.60
2010,07,06,03,10,9.60
2010,07,06,03,11,9.60
2010,07,06,03,12,9.60
2010,07,06,03,13,9.60
2010,07,06,03,14,9.60
2010,07,06,03,15,9.60
2010,07,06,03,16,9.60
2010,07,06,03,17,9.60
2010,07,06,03,18,9.60
2010,07,06,03,19,9.60
2010,07,06,03,20,9.60
2010,07,06,03,21,9.60
2010,07,06,03,22,9.60
2010,07,06,03,23,9.60
2010,07,06,03,24,9.60
2010,07,06,03,25,9.60
2010,07,06,03,26,9.60
2010,07,06,03,27,9.60
2010,07,06,03,28,9.60
2010,07,06,03,29,9.60
2010,07,06,03,30,9.60
2010,07,06,03,31,9.70
2010,07,06,03,32,9.70
2010,07,06,03,33,9.70
2010,07,06,03,34,9.70
2010,07,06,03,35,9.80
2010,07,06,03,36,9.80
2010,07,06,03,37,9.80
2010,07,06,03,38,9.90
2010,07,06,03,39,9.90
2010,07,06,03,40,9.90
2010,07,06,03,41,9.80
2010,07,06,03,42,9.70
2010,07,06,03,43,9.60
2010,07,06,03,44,9.50
2010,07,06,03,45,9.40
2010,07,06,03,46,9.30
2010,07,06,03,47,9.20
2010,07,06,03,48,9.20
2010,07,06,03,49,9.10
2010,07,06,03,50,9.10
2010,07,06,03,51,9.00
2010,07,06,03,52,9.00
2010,07,06,03,53,9.00
2010,07,06,03,54,9.00
2010,07,06,03,55,9.00
2010,07,06,03,56,9.00
2010,07,06,03,57,9.00
2010,07,06,03,58,9.10
2010,07,06,03,59,9.10
2010,07,06,04,00,9.10
2010,07,06,04,01,9.10
2010,07,06,04,02,9.10
2010,07,06,04,03,9.10
2010,07,06,04,04,9.10
2010,07,06,04,05,9.10
2010,07,06,04,06,9.00
2010,07,06,04,07,9.00
2010,07,06,04,08,9.00
2010,07,06,04,09,9.00
2010,07,06,04,10,8.90
2010,07,06,04,11,8.90
2010,07,06,04,12,8.90
2010,07,06,04,13,9.00
2010,07,06,04,14,9.00
2010,07,06,04,15,9.00
2010,07,06,04,16,9.10
2010,07,06,04,17,9.10
2010,07,06,04,18,9.10
2010,07,06,04,19,9.10
2010,07,06,04,20,9.20
2010,07,06,04,21,9.20
2010,07,06,04,22,9.20
2010,07,06,04,23,9.30
2010,07,06,04,24,9.30
2010,07,06,04,25,9.40
2010,07,06,04,26,9.40
2010,07,06,04,27,9.40
2010,07,06,04,28,9.50
2010,07,06,04,29,9.50
2010,07,06,04,30,9.50
2010,07,06,04,31,9.60
2010,07,06,04,32,9.60
2010,07,06,04,33,9.70
2010,07,06,04,34,9.70
2010,07,06,04,35,9.70
2010,07,06,04,36,9.70
2010,07,06,04,37,9.70
2010,07,06,04,38,9.70
2010,07,06,04,39,9.70
2010,07,06,04,40,9.70
2010,07,06,04,41,9.70
2010,07,06,04,42,9.70
2010,07,06,04,43,9.70
2010,07,06,04,44,9.70
2010,07,06,04,45,9.70
2010,07,06,04,46,9.70
2010,07,06,04,47,9.70
2010,07,06,04,48,9.70
2010,07,06,04,49,9.70
2010,07,06,04,50,9.70
2010,07,06,04,51,9.70
2010,07,06,04,52,9.70
2010,07,06,04,53,9.70
2010,07,06,04,54,9.70
2010,07,06,04,55,9.70
2010,07,06,04,56,9.70
2010,07,06,04,57,9.70
2010,07,06,04,58,9.70
2010,07,06,04,59,9.70
2010,07,06,05,00,9.70
2010,07,06,05,01,9.70
2010,07,06,05,02,9.80
2010,07,06,05,03,9.80
2010,07,06,05,04,9.80
2010,07,06,05,05,9.80
2010,07,06,05,06,9.80
2010,07,06,05,07,9.80
2010,07,06,05,08,9.90
2010,07,06,05,09,9.90
2010,07,06,05,10,9.90
2010,07,06,05,11,9.90
2010,07,06,05,12,9.90
2010,07,06,05,13,9.90
2010,07,06,05,14,9.80
2010,07,06,05,15,9.80
2010,07,06,05,16,9.80
2010,07,06,05,17,9.80
2010,07,06,05,18,9.80
2010,07,06,05,19,9.70
2010,07,06,05,20,9.70
2010,07,06,05,21,9.70
2010,07,06,05,22,9.70
2010,07,06,05,23,9.70
2010,07,06,05,24,9.70
2010,07,06,05,25,9.70
2010,07,06,05,26,9.60
2010,07,06,05,27,9.60
2010,07,06,05,28,9.60
2010,07,06,05,29,9.60
2010,07,06,05,30,9.60
2010,07,06,05,31,9.60
2010,07,06,05,32,9.50
2010,07,06,05,33,9.50
2010,07,06,05,34,9.50
2010,07,06,05,35,9.40
2010,07,06,05,36,9.40
2010,07,06,05,37,9.40
2010,07,06,05,38,9.40
2010,07,06,05,39,9.30
2010,07,06,05,40,9.30
2010,07,06,05,41,9.30
2010,07,06,05,42,9.30
2010,07,06,05,43,9.30
2010,07,06,05,44,9.30
2010,07,06,05,45,9.30
2010,07,06,05,46,9.20
2010,07,06,05,47,9.10
2010,07,06,05,48,8.90
2010,07,06,05,49,8.80
2010,07,06,05,50,8.70
2010,07,06,05,51,8.70
2010,07,06,05,52,8.60
2010,07,06,05,53,8.60
2010,07,06,05,54,8.50
2010,07,06,05,55,8.50
2010,07,06,05,56,8.40
2010,07,06,05,57,8.40
2010,07,06,05,58,8.30
2010,07,06,05,59,8.30
2010,07,06,06,00,8.30
2010,07,06,06,01,8.20
2010,07,06,06,02,8.20
2010,07,06,06,03,8.20
2010,07,06,06,04,8.20
2010,07,06,06,05,8.20
2010,07,06,06,06,8.20
2010,07,06,06,07,8.20
2010,07,06,06,08,8.20
2010,07,06,06,09,8.20
2010,07,06,06,10,8.20
2010,07,06,06,11,8.20
2010,07,06,06,12,8.20
2010,07,06,06,13,8.30
2010,07,06,06,14,8.30
2010,07,06,06,15,8.30
2010,07,06,06,16,8.40
2010,07,06,06,17,8.40
2010,07,06,06,18,8.50
2010,07,06,06,19,8.60
2010,07,06,06,20,8.70
2010,07,06,06,21,8.70
2010,07,06,06,22,8.80
2010,07,06,06,23,8.80
2010,07,06,06,24,8.80
2010,07,06,06,25,8.80
2010,07,06,06,26,8.70
2010,07,06,06,27,8.70
2010,07,06,06,28,8.70
2010,07,06,06,29,8.60
2010,07,06,06,30,8.60
2010,07,06,06,31,8.60
2010,07,06,06,32,8.60
2010,07,06,06,33,8.60
2010,07,06,06,34,8.60
2010,07,06,06,35,8.60
2010,07,06,06,36,8.60
2010,07,06,06,37,8.70
2010,07,06,06,38,8.70
2010,07,06,06,39,8.70
2010,07,06,06,40,8.80
2010,07,06,06,41,8.80
2010,07,06,06,42,8.90
2010,07,06,06,43,8.90
2010,07,06,06,44,9.00
2010,07,06,06,45,9.10
2010,07,06,06,46,9.20
2010,07,06,06,47,9.20
2010,07,06,06,48,9.30
2010,07,06,06,49,9.40
2010,07,06,06,50,9.40
2010,07,06,06,51,9.50
2010,07,06,06,52,9.70
2010,07,06,06,53,9.80
2010,07,06,06,54,9.90
2010,07,06,06,55,10.10
2010,07,06,06,56,10.30
2010,07,06,06,57,10.50
2010,07,06,06,58,10.60
2010,07,06,06,59,10.80
2010,07,06,07,00,11.00
2010,07,06,07,01,11.20
2010,07,06,07,02,11.40
2010,07,06,07,03,11.50
2010,07,06,07,04,11.70
2010,07,06,07,05,11.90
2010,07,06,07,06,12.00
2010,07,06,07,07,12.20
2010,07,06,07,08,12.30
2010,07,06,07,09,12.50
2010,07,06,07,10,12.60
2010,07,06,07,11,12.70
2010,07,06,07,12,12.80
2010,07,06,07,13,12.90
2010,07,06,07,14,13.00
2010,07,06,07,15,13.10
2010,07,06,07,16,13.20
2010,07,06,07,17,13.30
2010,07,06,07,18,13.40
2010,07,06,07,19,13.50
2010,07,06,07,20,13.60
2010,07,06,07,21,13.70
2010,07,06,07,22,13.80
2010,07,06,07,23,13.90
2010,07,06,07,24,13.90
2010,07,06,07,25,14.00
2010,07,06,07,26,14.10
2010,07,06,07,27,14.20
2010,07,06,07,28,14.20
2010,07,06,07,29,14.20
2010,07,06,07,30,14.20
2010,07,06,07,31,14.30
2010,07,06,07,32,14.30
2010,07,06,07,33,14.40
2010,07,06,07,34,14.40
2010,07,06,07,35,14.50
2010,07,06,07,36,14.50
2010,07,06,07,37,14.50
2010,07,06,07,38,14.50
2010,07,06,07,39,14.60
2010,07,06,07,40,14.60
2010,07,06,07,41,14.60
2010,07,06,07,42,14.70
2010,07,06,07,43,14.70
2010,07,06,07,44,14.70
2010,07,06,07,45,14.70
2010,07,06,07,46,14.80
2010,07,06,07,47,14.80
2010,07,06,07,48,14.80
2010,07,06,07,49,14.80
2010,07,06,07,50,14.80
2010,07,06,07,51,14.80
2010,07,06,07,52,14.90
2010,07,06,07,53,14.90
2010,07,06,07,54,15.00
2010,07,06,07,55,15.00
2010,07,06,07,56,15.10
2010,07,06,07,57,15.10
2010,07,06,07,58,15.20
2010,07,06,07,59,15.20
2010,07,06,08,00,15.20
2010,07,06,08,01,15.30
2010,07,06,08,02,15.30
2010,07,06,08,03,15.40
2010,07,06,08,04,15.50
2010,07,06,08,05,15.50
2010,07,06,08,06,15.60
2010,07,06,08,07,15.60
2010,07,06,08,08,15.60
2010,07,06,08,09,15.60
2010,07,06,08,10,15.60
2010,07,06,08,11,15.70
2010,07,06,08,12,15.70
2010,07,06,08,13,15.70
2010,07,06,08,14,15.80
2010,07,06,08,15,15.80
2010,07,06,08,16,15.80
2010,07,06,08,17,15.70
2010,07,06,08,18,15.70
2010,07,06,08,19,15.70
2010,07,06,08,20,15.70
2010,07,06,08,21,15.70
2010,07,06,08,22,15.70
2010,07,06,08,23,15.70
2010,07,06,08,24,15.70
2010,07,06,08,25,15.70
2010,07,06,08,26,15.70
2010,07,06,08,27,15.80
2010,07,06,08,28,15.80
2010,07,06,08,29,15.80
2010,07,06,08,30,15.80
2010,07,06,08,31,15.80
2010,07,06,08,32,15.90
2010,07,06,08,33,15.90
2010,07,06,08,34,15.90
2010,07,06,08,35,15.80
2010,07,06,08,36,15.80
2010,07,06,08,37,15.80
2010,07,06,08,38,15.80
2010,07,06,08,39,15.80
2010,07,06,08,40,15.80
2010,07,06,08,41,15.90
2010,07,06,08,42,15.90
2010,07,06,08,43,16.10
2010,07,06,08,44,16.10
2010,07,06,08,45,16.10
2010,07,06,08,46,16.20
2010,07,06,08,47,16.20
2010,07,06,08,48,16.20
2010,07,06,08,49,16.20
2010,07,06,08,50,16.20
2010,07,06,08,51,16.20
2010,07,06,08,52,16.30
2010,07,06,08,53,16.30
2010,07,06,08,54,16.30
2010,07,06,08,55,16.40
2010,07,06,08,56,16.40
2010,07,06,08,57,16.40
2010,07,06,08,58,16.40
2010,07,06,08,59,16.40
2010,07,06,09,00,16.60
2010,07,06,09,01,16.60
2010,07,06,09,02,16.50
2010,07,06,09,03,16.60
2010,07,06,09,04,16.60
2010,07,06,09,05,16.60
2010,07,06,09,06,16.60
2010,07,06,09,07,16.70
2010,07,06,09,08,16.70
2010,07,06,09,09,16.70
2010,07,06,09,10,16.70
2010,07,06,09,11,16.60
2010,07,06,09,12,16.60
2010,07,06,09,13,16.50
2010,07,06,09,14,16.60
2010,07,06,09,15,16.60
2010,07,06,09,16,16.60
2010,07,06,09,17,16.70
2010,07,06,09,18,16.70
2010,07,06,09,19,16.70
2010,07,06,09,20,16.70
2010,07,06,09,21,16.70
2010,07,06,09,22,16.70
2010,07,06,09,23,16.70
2010,07,06,09,24,16.80
2010,07,06,09,25,16.90
2010,07,06,09,26,16.90
2010,07,06,09,27,16.90
2010,07,06,09,28,16.80
2010,07,06,09,29,16.80
2010,07,06,09,30,16.80
2010,07,06,09,31,16.70
2010,07,06,09,32,16.70
2010,07,06,09,33,16.70
2010,07,06,09,34,16.70
2010,07,06,09,35,16.70
2010,07,06,09,36,16.70
2010,07,06,09,37,16.70
2010,07,06,09,38,16.70
2010,07,06,09,39,16.70
2010,07,06,09,40,16.70
2010,07,06,09,41,16.70
2010,07,06,09,42,16.70
2010,07,06,09,43,16.80
2010,07,06,09,44,16.90
2010,07,06,09,45,16.90
2010,07,06,09,46,17.00
2010,07,06,09,47,17.00
2010,07,06,09,48,17.00
2010,07,06,09,49,17.10
2010,07,06,09,50,17.10
2010,07,06,09,51,17.10
2010,07,06,09,52,17.10
2010,07,06,09,53,17.00
2010,07,06,09,54,17.00
2010,07,06,09,55,17.00
2010,07,06,09,56,17.00
2010,07,06,09,57,17.00
2010,07,06,09,58,17.00
2010,07,06,09,59,16.90
2010,07,06,10,00,16.90
2010,07,06,10,01,16.90
2010,07,06,10,02,17.00
2010,07,06,10,03,17.00
2010,07,06,10,04,17.10
2010,07,06,10,05,17.10
2010,07,06,10,06,17.20
2010,07,06,10,07,17.30
2010,07,06,10,08,17.30
2010,07,06,10,09,17.30
2010,07,06,10,10,17.30
2010,07,06,10,11,17.40
2010,07,06,10,12,17.50
2010,07,06,10,13,17.60
2010,07,06,10,14,17.60
2010,07,06,10,15,17.70
2010,07,06,10,16,17.60
2010,07,06,10,17,17.60
2010,07,06,10,18,17.60
2010,07,06,10,19,17.60
2010,07,06,10,20,17.60
2010,07,06,10,21,17.60
2010,07,06,10,22,17.50
2010,07,06,10,23,17.50
2010,07,06,10,24,17.40
2010,07,06,10,25,17.30
2010,07,06,10,26,17.30
2010,07,06,10,27,17.10
2010,07,06,10,28,17.00
2010,07,06,10,29,17.00
2010,07,06,10,30,17.00
2010,07,06,10,31,17.00
2010,07,06,10,32,17.00
2010,07,06,10,33,17.00
2010,07,06,10,34,17.00
2010,07,06,10,35,17.00
2010,07,06,10,36,17.00
2010,07,06,10,37,17.00
2010,07,06,10,38,17.00
2010,07,06,10,39,17.00
2010,07,06,10,40,17.00
2010,07,06,10,41,17.00
2010,07,06,10,42,17.00
2010,07,06,10,43,17.10
2010,07,06,10,44,17.10
2010,07,06,10,45,17.20
2010,07,06,10,46,17.20
2010,07,06,10,47,17.30
2010,07,06,10,48,17.30
2010,07,06,10,49,17.40
2010,07,06,10,50,17.50
2010,07,06,10,51,17.60
2010,07,06,10,52,17.60
2010,07,06,10,53,17.60
2010,07,06,10,54,17.60
2010,07,06,10,55,17.60
2010,07,06,10,56,17.60
2010,07,06,10,57,17.60
2010,07,06,10,58,17.60
2010,07,06,10,59,17.50
2010,07,06,11,00,17.40
2010,07,06,11,01,17.40
2010,07,06,11,02,17.50
2010,07,06,11,03,17.50
2010,07,06,11,04,17.50
2010,07,06,11,05,17.50
2010,07,06,11,06,17.50
2010,07,06,11,07,17.50
2010,07,06,11,08,17.60
2010,07,06,11,09,17.80
2010,07,06,11,10,17.90
2010,07,06,11,11,18.00
2010,07,06,11,12,18.10
2010,07,06,11,13,18.20
2010,07,06,11,14,18.20
2010,07,06,11,15,18.20
2010,07,06,11,16,18.20
2010,07,06,11,17,18.20
2010,07,06,11,18,18.30
2010,07,06,11,19,18.30
2010,07,06,11,20,18.30
2010,07,06,11,21,18.30
2010,07,06,11,22,18.30
2010,07,06,11,23,18.40
2010,07,06,11,24,18.40
2010,07,06,11,25,18.50
2010,07,06,11,26,18.50
2010,07,06,11,27,18.60
2010,07,06,11,28,18.60
2010,07,06,11,29,18.50
2010,07,06,11,30,18.50
2010,07,06,11,31,18.40
2010,07,06,11,32,18.40
2010,07,06,11,33,18.40
2010,07,06,11,34,18.30
2010,07,06,11,35,18.20
2010,07,06,11,36,18.20
2010,07,06,11,37,18.20
2010,07,06,11,38,18.10
2010,07,06,11,39,18.10
2010,07,06,11,40,18.10
2010,07,06,11,41,18.20
2010,07,06,11,42,18.20
2010,07,06,11,43,18.30
2010,07,06,11,44,18.40
2010,07,06,11,45,18.50
2010,07,06,11,46,18.60
2010,07,06,11,47,18.50
2010,07,06,11,48,18.50
2010,07,06,11,49,18.50
2010,07,06,11,50,18.50
2010,07,06,11,51,18.40
2010,07,06,11,52,18.50
2010,07,06,11,53,18.50
2010,07,06,11,54,18.50
2010,07,06,11,55,18.60
2010,07,06,11,56,18.60
2010,07,06,11,57,18.70
2010,07,06,11,58,18.80
2010,07,06,11,59,18.90
2010,07,06,12,00,18.90
2010,07,06,12,01,18.90
2010,07,06,12,02,18.90
2010,07,06,12,03,18.90
2010,07,06,12,04,18.80
2010,07,06,12,05,18.80
2010,07,06,12,06,18.80
2010,07,06,12,07,18.80
2010,07,06,12,08,18.80
2010,07,06,12,09,18.90
2010,07,06,12,10,18.90
2010,07,06,12,11,18.90
2010,07,06,12,12,18.90
2010,07,06,12,13,18.90
2010,07,06,12,14,18.90
2010,07,06,12,15,18.90
2010,07,06,12,16,18.90
2010,07,06,12,17,18.90
2010,07,06,12,18,18.80
2010,07,06,12,19,18.70
2010,07,06,12,20,18.70
2010,07,06,12,21,18.70
2010,07,06,12,22,18.70
2010,07,06,12,23,18.70
2010,07,06,12,24,18.80
2010,07,06,12,25,18.80
2010,07,06,12,26,18.80
2010,07,06,12,27,18.80
2010,07,06,12,28,18.80
2010,07,06,12,29,18.70
2010,07,06,12,30,18.60
2010,07,06,12,31,18.50
2010,07,06,12,32,18.40
2010,07,06,12,33,18.40
2010,07,06,12,34,18.30
2010,07,06,12,35,18.30
2010,07,06,12,36,18.30
2010,07,06,12,37,18.30
2010,07,06,12,38,18.30
2010,07,06,12,39,18.30
2010,07,06,12,40,18.40
2010,07,06,12,41,18.50
2010,07,06,12,42,18.60
2010,07,06,12,43,18.70
2010,07,06,12,44,18.70
2010,07,06,12,45,18.70
2010,07,06,12,46,18.80
2010,07,06,12,47,18.80
2010,07,06,12,48,18.80
2010,07,06,12,49,18.80
2010,07,06,12,50,18.80
2010,07,06,12,51,18.70
2010,07,06,12,52,18.70
2010,07,06,12,53,18.60
2010,07,06,12,54,18.70
2010,07,06,12,55,18.70
2010,07,06,12,56,18.70
2010,07,06,12,57,18.60
2010,07,06,12,58,18.60
2010,07,06,12,59,18.70
2010,07,06,13,00,18.70
2010,07,06,13,01,18.70
2010,07,06,13,02,18.70
2010,07,06,13,03,18.60
2010,07,06,13,04,18.60
2010,07,06,13,05,18.60
2010,07,06,13,06,18.50
2010,07,06,13,07,18.50
2010,07,06,13,08,18.50
2010,07,06,13,09,18.60
2010,07,06,13,10,18.60
2010,07,06,13,11,18.70
2010,07,06,13,12,18.80
2010,07,06,13,13,18.90
2010,07,06,13,14,19.00
2010,07,06,13,15,19.10
2010,07,06,13,16,19.20
2010,07,06,13,17,19.20
2010,07,06,13,18,19.30
2010,07,06,13,19,19.20
2010,07,06,13,20,19.20
2010,07,06,13,21,19.20
2010,07,06,13,22,19.20
2010,07,06,13,23,19.30
2010,07,06,13,24,19.40
2010,07,06,13,25,19.40
2010,07,06,13,26,19.50
2010,07,06,13,27,19.50
2010,07,06,13,28,19.50
2010,07,06,13,29,19.60
2010,07,06,13,30,19.60
2010,07,06,13,31,19.60
2010,07,06,13,32,19.60
2010,07,06,13,33,19.60
2010,07,06,13,34,19.60
2010,07,06,13,35,19.50
2010,07,06,13,36,19.50
2010,07,06,13,37,19.50
2010,07,06,13,38,19.40
2010,07,06,13,39,19.40
2010,07,06,13,40,19.30
2010,07,06,13,41,19.40
2010,07,06,13,42,19.40
2010,07,06,13,43,19.40
2010,07,06,13,44,19.50
2010,07,06,13,45,19.70
2010,07,06,13,46,19.80
2010,07,06,13,47,19.90
2010,07,06,13,48,20.00
2010,07,06,13,49,20.10
2010,07,06,13,50,20.20
2010,07,06,13,51,20.20
2010,07,06,13,52,20.30
2010,07,06,13,53,20.30
2010,07,06,13,54,20.30
2010,07,06,13,55,20.40
2010,07,06,13,56,20.40
2010,07,06,13,57,20.40
2010,07,06,13,58,20.30
2010,07,06,13,59,20.20
2010,07,06,14,00,20.20
2010,07,06,14,01,20.20
2010,07,06,14,02,20.20
2010,07,06,14,03,20.30
2010,07,06,14,04,20.30
2010,07,06,14,05,20.40
2010,07,06,14,06,20.40
2010,07,06,14,07,20.40
2010,07,06,14,08,20.30
2010,07,06,14,09,20.20
2010,07,06,14,10,20.20
2010,07,06,14,11,20.20
2010,07,06,14,12,20.20
2010,07,06,14,13,20.40
2010,07,06,14,14,20.40
2010,07,06,14,15,20.50
2010,07,06,14,16,20.50
2010,07,06,14,17,20.60
2010,07,06,14,18,20.50
2010,07,06,14,19,20.40
2010,07,06,14,20,20.30
2010,07,06,14,21,20.20
2010,07,06,14,22,20.20
2010,07,06,14,23,20.20
2010,07,06,14,24,20.20
2010,07,06,14,25,20.20
2010,07,06,14,26,20.20
2010,07,06,14,27,20.20
2010,07,06,14,28,20.30
2010,07,06,14,29,20.40
2010,07,06,14,30,20.50
2010,07,06,14,31,20.60
2010,07,06,14,32,20.50
2010,07,06,14,33,20.60
2010,07,06,14,34,20.50
2010,07,06,14,35,20.40
2010,07,06,14,36,20.30
2010,07,06,14,37,20.20
2010,07,06,14,38,20.20
2010,07,06,14,39,20.20
2010,07,06,14,40,20.20
2010,07,06,14,41,20.20
2010,07,06,14,42,20.20
2010,07,06,14,43,20.20
2010,07,06,14,44,20.30
2010,07,06,14,45,20.30
2010,07,06,14,46,20.30
2010,07,06,14,47,20.30
2010,07,06,14,48,20.40
2010,07,06,14,49,20.40
2010,07,06,14,50,20.50
2010,07,06,14,51,20.50
2010,07,06,14,52,20.60
2010,07,06,14,53,20.60
2010,07,06,14,54,20.60
2010,07,06,14,55,20.60
2010,07,06,14,56,20.60
2010,07,06,14,57,20.70
2010,07,06,14,58,20.70
2010,07,06,14,59,20.80
2010,07,06,15,00,20.80
2010,07,06,15,01,20.90
2010,07,06,15,02,20.90
2010,07,06,15,03,20.90
2010,07,06,15,04,20.90
2010,07,06,15,05,20.90
2010,07,06,15,06,20.90
2010,07,06,15,07,20.90
2010,07,06,15,08,20.80
2010,07,06,15,09,20.80
2010,07,06,15,10,20.80
2010,07,06,15,11,20.80
2010,07,06,15,12,20.80
2010,07,06,15,13,20.80
2010,07,06,15,14,20.80
2010,07,06,15,15,20.80
2010,07,06,15,16,20.90
2010,07,06,15,17,20.90
2010,07,06,15,18,21.00
2010,07,06,15,19,21.10
2010,07,06,15,20,21.20
2010,07,06,15,21,21.20
2010,07,06,15,22,21.20
2010,07,06,15,23,21.20
2010,07,06,15,24,21.20
2010,07,06,15,25,21.30
2010,07,06,15,26,21.40
2010,07,06,15,27,21.50
2010,07,06,15,28,21.60
2010,07,06,15,29,21.60
2010,07,06,15,30,21.70
2010,07,06,15,31,21.70
2010,07,06,15,32,21.80
2010,07,06,15,33,22.00
2010,07,06,15,34,22.10
2010,07,06,15,35,22.20
2010,07,06,15,36,22.30
2010,07,06,15,37,22.30
2010,07,06,15,38,22.20
2010,07,06,15,39,22.10
2010,07,06,15,40,22.00
2010,07,06,15,41,21.90
2010,07,06,15,42,21.80
2010,07,06,15,43,21.80
2010,07,06,15,44,21.80
2010,07,06,15,45,21.80
2010,07,06,15,46,21.80
2010,07,06,15,47,21.80
2010,07,06,15,48,21.80
2010,07,06,15,49,21.90
2010,07,06,15,50,21.90
2010,07,06,15,51,22.00
2010,07,06,15,52,22.00
2010,07,06,15,53,22.00
2010,07,06,15,54,22.00
2010,07,06,15,55,21.90
2010,07,06,15,56,21.90
2010,07,06,15,57,21.90
2010,07,06,15,58,22.00
2010,07,06,15,59,22.00
2010,07,06,16,00,22.00
2010,07,06,16,01,22.00
2010,07,06,16,02,21.90
2010,07,06,16,03,21.80
2010,07,06,16,04,21.80
2010,07,06,16,05,21.90
2010,07,06,16,06,21.90
2010,07,06,16,07,21.80
2010,07,06,16,08,21.80
2010,07,06,16,09,21.80
2010,07,06,16,10,21.70
2010,07,06,16,11,21.60
2010,07,06,16,12,21.60
2010,07,06,16,13,21.70
2010,07,06,16,14,21.80
2010,07,06,16,15,21.80
2010,07,06,16,16,21.90
2010,07,06,16,17,21.90
2010,07,06,16,18,21.90
2010,07,06,16,19,21.90
2010,07,06,16,20,22.00
2010,07,06,16,21,22.00
2010,07,06,16,22,22.00
2010,07,06,16,23,22.10
2010,07,06,16,24,22.20
2010,07,06,16,25,22.20
2010,07,06,16,26,22.30
2010,07,06,16,27,22.30
2010,07,06,16,28,22.30
2010,07,06,16,29,22.30
2010,07,06,16,30,22.30
2010,07,06,16,31,22.30
2010,07,06,16,32,22.30
2010,07,06,16,33,22.40
2010,07,06,16,34,22.40
2010,07,06,16,35,22.50
2010,07,06,16,36,22.60
2010,07,06,16,37,22.80
2010,07,06,16,38,22.90
2010,07,06,16,39,23.10
2010,07,06,16,40,23.20
2010,07,06,16,41,23.20
2010,07,06,16,42,23.20
2010,07,06,16,43,23.20
2010,07,06,16,44,23.10
2010,07,06,16,45,23.10
2010,07,06,16,46,23.10
2010,07,06,16,47,23.00
2010,07,06,16,48,22.90
2010,07,06,16,49,23.10
2010,07,06,16,50,23.00
2010,07,06,16,51,22.90
2010,07,06,16,52,22.70
2010,07,06,16,53,22.60
2010,07,06,16,54,22.40
2010,07,06,16,55,22.40
2010,07,06,16,56,22.40
2010,07,06,16,57,22.30
2010,07,06,16,58,22.30
2010,07,06,16,59,22.20
2010,07,06,17,00,22.20
2010,07,06,17,01,22.30
2010,07,06,17,02,22.30
2010,07,06,17,03,22.50
2010,07,06,17,04,22.60
2010,07,06,17,05,22.60
2010,07,06,17,06,22.70
2010,07,06,17,07,22.80
2010,07,06,17,08,22.80
2010,07,06,17,09,22.80
2010,07,06,17,10,22.80
2010,07,06,17,11,22.70
2010,07,06,17,12,22.70
2010,07,06,17,13,22.70
2010,07,06,17,14,22.70
2010,07,06,17,15,22.70
2010,07,06,17,16,22.70
2010,07,06,17,17,22.80
2010,07,06,17,18,22.90
2010,07,06,17,19,22.90
2010,07,06,17,20,22.90
2010,07,06,17,21,22.90
2010,07,06,17,22,22.90
2010,07,06,17,23,22.90
2010,07,06,17,24,22.90
2010,07,06,17,25,22.90
2010,07,06,17,26,23.00
2010,07,06,17,27,23.10
2010,07,06,17,28,23.20
2010,07,06,17,29,23.30
2010,07,06,17,30,23.30
2010,07,06,17,31,23.30